This is the latest recevied weather packets stored in our database for station/object DJ4CK-1. If no packets are shown the sender has not sent any weather packets the latest 10 day(s).
| Time | Temp. | Humidity | Pressure | Rain* | Wind** | Luminosity | Snow |
|---|---|---|---|---|---|---|---|
| 1777895223 | 22.22° C | 36% | 1014.3 hPa | 0 mm | - | - | - |
| 1777895163 | 22.22° C | 36% | 1014.3 hPa | 0 mm | - | - | - |
| 1777895103 | 22.22° C | 37% | 1014.3 hPa | 0 mm | - | - | - |
| 1777895043 | 21.67° C | 36% | 1014.4 hPa | 0 mm | - | - | - |
| 1777894983 | 22.22° C | 35% | 1014.4 hPa | 0 mm | - | - | - |
| 1777894923 | 22.22° C | 36% | 1014.4 hPa | 0 mm | - | - | - |
| 1777894863 | 22.78° C | 37% | 1014.4 hPa | 0 mm | - | - | - |
| 1777894804 | 22.22° C | 38% | 1014.4 hPa | 0 mm | - | - | - |
| 1777894743 | 22.22° C | 36% | 1014.4 hPa | 0 mm | - | - | - |
| 1777894683 | 22.22° C | 36% | 1014.4 hPa | 0 mm | - | - | - |
| 1777894623 | 22.78° C | 35% | 1014.4 hPa | 0 mm | - | - | - |
| 1777894565 | 22.78° C | 38% | 1014.5 hPa | 0 mm | - | - | - |
| 1777894504 | 22.22° C | 36% | 1014.5 hPa | 0 mm | - | - | - |
| 1777894444 | 22.22° C | 37% | 1014.5 hPa | 0 mm | - | - | - |
| 1777894323 | 21.67° C | 38% | 1014.5 hPa | 0 mm | - | - | - |
| 1777894263 | 21.11° C | 39% | 1014.6 hPa | 0 mm | - | - | - |
| 1777894204 | 21.11° C | 40% | 1014.6 hPa | 0 mm | - | - | - |
| 1777894143 | 21.11° C | 39% | 1014.6 hPa | 0 mm | - | - | - |
| 1777894083 | 21.11° C | 39% | 1014.6 hPa | 0 mm | - | - | - |
| 1777894023 | 20.56° C | 39% | 1014.6 hPa | 0 mm | - | - | - |
| 1777893964 | 20.56° C | 38% | 1014.6 hPa | 0 mm | - | - | - |
| 1777893904 | 21.11° C | 39% | 1014.6 hPa | 0 mm | - | - | - |
| 1777893843 | 21.11° C | 37% | 1014.6 hPa | 0 mm | - | - | - |
| 1777893783 | 21.67° C | 39% | 1014.6 hPa | 0 mm | - | - | - |
| 1777893723 | 21.67° C | 40% | 1014.6 hPa | 0 mm | - | - | - |
* Rain latest hour (hover to see other rain measurements)
** Current wind speed in m/s (hover to see current wind gust speed)